Delta Virtual Airport Information Service

Boston Logan International Airport

ICAO: KBOS Country: United States
Latitude: 42.363 Longitude: -71.0064
Latest Arrival : DALJUMP (KIAD-KBOS) Latest Departure : UAL2136 (KBOS-KIAD)


WX CaptureLIVE
Data provided by noaa.gov | Fetched at 10:44:02

METAR : KBOS 151454Z 12004KT 10SM FEW011 OVC017 21/18 A2974 RMK AO2 SLP071 T02110178 55007 $

TAF : KBOS 151405Z 1514/1618 12004KT P6SM FEW010 BKN022 FM151900 15009KT P6SM TSRA BKN025CB FM152100 15003KT P6SM VCSH BKN060 BKN250 FM160000 26006KT P6SM BKN100 FM160700 30007KT P6SM FEW120 FEW250


Runway Data for KBOS
Data provided by openaviationdata.com

Runway ID Mag Var Hdg Length Elevation Surface ILS Freq ILS Id ILS Slope
04L -15 35° 7475 ft 0 ft Bituminous -- -- --
04R -15 35° 7513 ft 0 ft Bituminous 110.3 IBOS 3
9 -15 92° 6761 ft 0 ft Bituminous -- -- --
14 -15 140° 5033 ft 0 ft Asphalt -- -- --
15L -15 151° 2555 ft 0 ft Asphalt -- -- --
15R -15 151° 9857 ft 0 ft Bituminous 110.7 IMDC 3
22L -15 215° 7513 ft 0 ft Bituminous 110.3 ILQN 3
22R -15 215° 7475 ft 0 ft Bituminous -- -- --
27 -15 272° 6761 ft 0 ft Bituminous 111.3 IDGU 3
32 -15 320° 5033 ft 0 ft Asphalt -- -- --
33L -15 331° 9857 ft 0 ft Bituminous 110.7 ILIP 3
33R -15 331° 2555 ft 0 ft Asphalt -- -- --

Boston Logan International Airport, United States
Use only for reference purposes



Not for navigational purposes.